Regional Weather Roundup
Issued by NWS

Home | Current Version | Previous Version | Graphics & Text | Print | Product List | Glossary On
Versions: 1 2 3 4 5 6 7 8 9 10 11 12 13 14 15 16 17 18 19 20 21 22 23 24 25 26 27 28 29 30 31 32 33 34 35 36 37 38 39 40 41 42 43 44 45 46 47 48 49 50
000
ASUS43 KMPX 160401
RWRMN
WEATHER ROUNDUP FOR MINNESOTA
NATIONAL WEATHER SERVICE TWIN CITIES/CHANHASSEN MN
1000 PM CST SUN JAN 15 2017


NOTE: "FAIR" INDICATES FEW OR NO CLOUDS BELOW 12,000 FEET WITH NO
SIGNIFICANT WEATHER AND/OR OBSTRUCTIONS TO VISIBILITY. N/A MEANS
CURRENT SKY AND/OR WEATHER CONDITIONS ARE NOT AVAILABLE.

MNZ060>063-068>070-160500-
   Twin Cities Metro

CITY           SKY/WX    TMP DP  RH WIND       PRES   REMARKS
TWIN CITIES    CLOUDY    20  16  84 SE6       30.23R WCI  12
ST PAUL        CLOUDY    17  15  92 S7        30.25R FOG     WCI   8
CRYSTAL        CLOUDY    23  16  74 S6        30.20S WCI  16
BLAINE         CLOUDY    19  19 100 SE3       30.21R
LAKEVILLE      CLOUDY    19  18  93 CALM      30.22S
EDEN PRAIRIE   CLOUDY    23  16  74 S6        30.21R WCI  16
SOUTH ST PAUL  CLOUDY    20  16  84 SE5       30.23S WCI  14
LAKE ELMO      FAIR      18  14  86 S6        30.23S WCI   9
$$
MNZ001>005-007-008-013>017-022>024-027-028-160500-
   Northwest Minnesota

CITY           SKY/WX    TMP DP  RH WIND       PRES   REMARKS
BEMIDJI        CLOUDY    16  12  83 S6        30.04S WCI   8
HALLOCK        CLOUDY    10   5  79 S10       29.99S WCI  -3
ROSEAU         CLOUDY    12   7  79 S9        29.99S WCI   0
WARROAD        CLOUDY    14   9  79 SW8       29.99R WCI   3
THIEF RVR FALL CLOUDY    14  10  84 S13       30.03F WCI   0
CROOKSTON      CLOUDY    12   9  85 S13       30.06S WCI  -3
FOSSTON        CLOUDY    14  10  85 S15       30.05F WCI  -1
DETROIT LAKES  CLEAR     18  16  93 S5        30.08S WCI  11
MOORHEAD       CLOUDY    16  12  86 S12       30.09S WCI   3
PARK RAPIDS    CLEAR     12   8  84 S6        30.06F WCI   3
MAHNOMEN       FAIR      17  13  86 S13       30.06S WCI   3
$$
MNZ006-009>011-018-025>026-160500-
   North Central Minnesota

CITY           SKY/WX    TMP DP  RH WIND       PRES   REMARKS
BAUDETTE       CLOUDY    14   7  73 S5        29.99R WCI   6
FLAG ISLAND    CLOUDY    12   7  79 S8        29.96S WCI   1
INTL FALLS     CLOUDY    21  13  71 SW6       30.01R WCI  13
WASKISH        CLOUDY    18  10  73 CALM      30.02F
BIG FORK       CLOUDY    19  14  79 S6        30.05S WCI  11
LONGVILLE      CLOUDY    21  16  79 S5        30.08S WCI  15
GRAND RAPIDS   CLOUDY    21  15  78 S6        30.09S WCI  13
CRANE LAKE     CLOUDY    23  16  74 S6        30.05S WCI  16
ORR            CLOUDY    21  12  68 CALM      30.02S
COOK           CLOUDY    21  12  68 SW7       30.06S WCI  13
WALKER         FAIR      20  15  81 SW8       30.06S WCI  10
$$
MNZ012-019>021-037-160500-
   Northeast Minnesota

CITY           SKY/WX    TMP DP  RH WIND       PRES   REMARKS
DULUTH         CLOUDY    22  16  78 W12       30.09S WCI  10
ELY            CLOUDY    21  12  68 SW6       30.05R WCI  14
HIBBING        CLOUDY    15  10  80 S3        30.07S
EVELETH        CLOUDY    20  10  65 S3        30.09S
DULUTH HARBOR  CLOUDY    21  16  79 CALM      30.15S
TWO HARBORS    CLOUDY    25  16  68 W5        30.09R WCI  19
SILVER BAY     CLEAR     23  16  74 SW3       30.08R
GRAND MARAIS     N/A     29  17  61 W6        30.07S WCI  23
G MARAIS ARPRT CLOUDY    19  10  68 SW5       30.01S WCI  13
$$
MNZ029>031-032-039>041-046>048-054>057-064-160500-
   West Central Minnesota

CITY           SKY/WX    TMP DP  RH WIND       PRES   REMARKS
FERGUS FALLS   CLEAR     12  10  92 S9        30.16S WCI   0
WHEATON        PTCLDY    25  21  86 S12       30.13S WCI  14
MORRIS         CLOUDY    12  10  92 S8        30.12S WCI   1
ALEXANDRIA     CLOUDY    22  17  81 SW12      30.11S WCI  10
ELBOW LAKE     FAIR      16  13  90 E8        30.12R FOG     WCI   5
WADENA         CLEAR     18  14  86 SW7       30.09S WCI   8
GLENWOOD       CLOUDY    14  12  92 S6        30.13S WCI   5
APPLETON       CLOUDY    21  18  86 S6        30.14F WCI  14
ORTONVILLE     CLOUDY    14  10  85 CALM      30.12F
MADISON        CLOUDY    19  16  86 S7        30.15S WCI  10
WILLMAR        FAIR      12  10  92 CALM      30.17S
$$
MNZ033>034-036-042>043-049>051-058-059-160500-
   Central Minnesota

CITY           SKY/WX    TMP DP  RH WIND       PRES   REMARKS
ST CLOUD       CLOUDY    17  16  95 S6        30.16S FOG     WCI   9
SAUK CENTRE    FAIR      14  13  95 S6        30.14S WCI   5
PAYNESVILLE    CLOUDY    20  20 100 S3        30.16S
AITKIN         CLOUDY    19  12  73 CALM      30.10S
PINE RIVER     CLOUDY    14  12  92 CALM      30.13R
BRAINERD       CLOUDY    17  14  88 S7        30.11F FOG     WCI   8
STAPLES        CLOUDY    16  12  86 S3        30.10S
LONG PRAIRIE   FAIR      14  12  92 S5        30.13S WCI   6
LITTLE FALLS   CLOUDY    14  10  85 SE6       30.15S FOG     WCI   5
LITCHFIELD     CLOUDY    21  19  93 CALM      30.17F
BUFFALO        CLOUDY    22  19  87 S5        30.20S WCI  16
MAPLE LAKE     CLOUDY    22  20  94 S6        30.19S WCI  14
HUTCHINSON     CLOUDY    17  15  94 SE5       30.20S WCI  10
$$
MNZ037-044-045-052-053-160500-
   East Central Minnesota

CITY           SKY/WX    TMP DP  RH WIND       PRES   REMARKS
PRINCETON      CLOUDY    25  19  80 S6        30.17S WCI  18
MORA           PTCLDY     9   5  85 CALM      30.19S
CAMBRIDGE      CLOUDY    21  14  73 S6        30.17S WCI  14
RUSH CITY        N/A     16  14  93 S6        30.19S WCI   7
MOOSE LAKE     CLEAR     18  14  86 SW5       30.13S WCI  11
HINCKLEY       FAIR      14  12  92 S3        30.17S
CLOQUET        CLOUDY    21  16  79 SW9       30.11S WCI  11
MCGREGOR       CLOUDY    21  18  86 S3        30.11F
$$
MNZ071>073-080-081-089-090-097-098-160500-
   Southwest Minnesota

CITY           SKY/WX    TMP DP  RH WIND       PRES   REMARKS
MONTEVIDEO     CLOUDY    21  18  86 S3        30.18R
GRANITE FALLS  CLOUDY    17  15  90 SE7       30.18S WCI   8
CANBY          CLOUDY    22  18  85 CALM      30.14S
MARSHALL       PTCLDY    18  15  88 S8        30.15F WCI   8
REDWOOD FALLS  PTCLDY    19  14  81 S9        30.17S WCI   8
OLIVIA         CLOUDY    21  19  93 SE6       30.17S WCI  14
PIPESTONE      CLOUDY    21  16  79 S7        30.13S WCI  13
WINDOM         CLOUDY    23  19  86 S3        30.16S
WORTHINGTON    CLOUDY    25  18  74 S5        30.15F WCI  19
JACKSON        CLOUDY    23  19  86 S5        30.17S WCI  17
TRACY          CLOUDY    26  18  72 S7        30.15S WCI  18
SLAYTON        CLOUDY    24  16  71 S8        30.14F WCI  15
$$
MNZ065>067-074>077-082>085-091>093-160500-
   South Central Minnesota

CITY           SKY/WX    TMP DP  RH WIND       PRES   REMARKS
MANKATO        CLOUDY    21  18  88 S8        30.22S WCI  11
NEW ULM        CLOUDY    21  16  79 S9        30.19S WCI  11
ST JAMES       CLOUDY    21  19  93 SE5       30.20F WCI  15
FAIRMONT       CLOUDY    23  19  85 S8        30.20S WCI  14
GLENCOE        CLOUDY    22  21  93 S3        30.20R
FARIBAULT      CLOUDY    21  18  86 S6        30.22S WCI  14
OWATONNA       PTCLDY    19  16  86 S9        30.21F WCI   9
WASECA         CLOUDY    19  16  86 SE6       30.23S WCI  11
ALBERT LEA     CLOUDY    21  18  86 SE6       30.21F WCI  14
$$
MNZ078>079-086>088-094>096-160500-
   Southeast Minnesota

CITY           SKY/WX    TMP DP  RH WIND       PRES   REMARKS
ROCHESTER      CLOUDY    18  15  88 S9        30.22F WCI   7
RED WING       CLOUDY    18  14  86 SE3       30.25R
STANTON        CLOUDY    21  16  81 S7        30.22R WCI  12
DODGE CENTER   CLOUDY    16  12  86 CALM      30.21F
WINONA           N/A     12  10  92 CALM      30.28F
AUSTIN         CLOUDY    18  14  86 SE5       30.23S WCI  11
PRESTON        CLOUDY    18  14  84 S5        30.24F WCI  11
$$
ABBREVIATIONS USED IN REMARKS
   TC - TEMPERATURES IN CELSIUS
  WCI - WIND CHILL INDEX
   HX - HEAT INDEX
  VSB - VISIBILITY
$$




USA.gov is the U.S. government's official web portal to all federal, state and local government web resources and services.